Location: Little Maitland River
(43.8022°N, 81.1549°W)
Time: 16:00:12
(UTC+00:00)

BREEZE-M DEB (TANK) - Pass Details

Date: 09 December 2025
Orbit: 322 x 14419 km, 49.6° (Epoch: 19 January)

Event Time Altitude Azimuth Distance (km) Brightness Sun altitude
Exits shadow 11:30:07 22° 319° (NW) 947 3.7 -13.4°
Maximum altitude 11:31:21 32° 7° (N) 840 3.8 -13.2°
Drops below altitude 10° 11:35:51 10° 73° (ENE) 2,630 7.3 -12.4°
Sets 11:40:34 0° 82° (E) 4,839 9.0 -11.6°
